Location: Hawks Ness
(60.2333°N, 1.1667°W)
Time: 18:53:41
(UTC+00:00)

COSMOS 2428 - Pass Details

Date: 22 October 2019
Orbit: 844 x 858 km, 70.9° (Epoch: 19 November)

Event Time Altitude Azimuth Distance (km) Brightness Sun altitude
Exits shadow 02:59:32 37° 136° (SE) 1,286 3.6 -29.6°
Maximum altitude 03:00:27 40° 114° (ESE) 1,232 3.7 -29.5°
Drops below altitude 10° 03:05:42 10° 46° (NE) 2,480 6.0 -28.9°
Sets 03:08:17 0° 40° (NE) 3,420 6.9 -28.6°
